McCook, NE

6:36 AM CDT on August 21, 2017 (GMT -0500)
McCook Municipal

Weather History for KMCK - March, 2011

Change the Weather History Date:

Sunday, March 20, 2011

  Actual Average Record
Temperature  
Mean Temperature 59 °F 40 °F  
Max Temperature 76 °F 56 °F 85 °F (1997)
Min Temperature 42 °F 26 °F 3 °F (1965)
Degree Days  
Heating Degree Days 6    
Growing Degree Days 8 (Base 50)    
Moisture  
Dew Point 38 °F    
Average Humidity 61    
Maximum Humidity 100    
Minimum Humidity 15    
Precipitation  
Precipitation 0.00 in 0.05 in 0.98 in (1962)
Month to date precipitation 0.20 0.82  
Year to date precipitation 0.65 1.95  
Sea Level Pressure  
Sea Level Pressure 29.83 in    
Wind  
Wind Speed 9 mph (WNW)    
Max Wind Speed 23 mph    
Max Gust Speed 26 mph    
Visibility 9 miles    
Events      
T = Trace of Precipitation, MM = Missing Value Source: NWS Daily Summary

Daily Weather History Graph

Daily Weather History Graph

Search for Another Location

Airport or City:

Trip Planner

Search our weather history database for the weather conditions in past years. The results will help you decide how hot, cold, wet, or windy it might be!

Date:

Astronomy

Mar. 20, 2011 Rise Set
Actual Time 7:46 AM CDT 7:54 PM CDT
Civil Twilight 7:19 AM CDT 8:21 PM CDT
Nautical Twilight 6:47 AM CDT 8:53 PM CDT
Astronomical Twilight 6:15 AM CDT 9:25 PM CDT
Moon 9:36 PM CDT (3/20) 7:52 AM CDT (3/20)
Length of Visible Light 13h 02m
Length of Day
12h 08m
Full, 99% of the Moon is Illuminated
Mar 20
Full
Mar 26
Last Quarter
Apr 3
New
Apr 11
First Quarter
Apr 17
Full

Hourly Weather History & Observations

Time (CDT) Temp. Windchill Dew Point Humidity Pressure Visibility Wind Dir Wind Speed Gust Speed Precip Events Conditions
12:12 AM 53.6 °F - 48.2 °F 82% 29.80 in 10.0 mi SSE 10.4 mph - N/A   Mostly Cloudy
12:25 AM 53.6 °F - 48.2 °F 82% 29.80 in 10.0 mi SSE 11.5 mph 17.3 mph N/A   Scattered Clouds
12:53 AM 53.1 °F - 48.9 °F 86% 29.78 in 10.0 mi South 13.8 mph 20.7 mph N/A   Clear
1:53 AM 53.1 °F - 48.9 °F 86% 29.78 in 10.0 mi South 10.4 mph - N/A   Clear
2:53 AM 52.0 °F - 48.0 °F 86% 29.76 in 10.0 mi SSW 8.1 mph - N/A   Clear
3:53 AM 52.0 °F - 48.9 °F 89% 29.74 in 10.0 mi SSW 10.4 mph - N/A   Clear
4:53 AM 51.1 °F - 48.0 °F 89% 29.72 in 10.0 mi SW 13.8 mph - N/A   Clear
5:53 AM 48.9 °F - 48.0 °F 97% 29.75 in 8.0 mi Calm Calm - N/A   Clear
6:53 AM 48.9 °F - 46.9 °F 93% 29.75 in 7.0 mi SW 9.2 mph - N/A   Clear
7:35 AM 46.4 °F - 44.6 °F 93% 29.78 in 1.8 mi Calm Calm - N/A   Clear
7:53 AM 44.6 °F 43.1 °F 44.6 °F 100% 29.78 in 1.0 mi SW 3.5 mph - N/A   Clear
8:33 AM 44.6 °F 40.7 °F 44.6 °F 100% 29.79 in 2.5 mi WSW 6.9 mph - N/A   Clear
8:41 AM 44.6 °F 40.7 °F 44.6 °F 100% 29.79 in 3.0 mi SW 6.9 mph - N/A   Clear
8:53 AM 45.0 °F 41.2 °F 45.0 °F 100% 29.79 in 5.0 mi WSW 6.9 mph - N/A   Clear
9:53 AM 50.0 °F - 43.0 °F 77% 29.83 in 10.0 mi WNW 11.5 mph - N/A   Clear
10:53 AM 59.0 °F - 42.1 °F 53% 29.84 in 10.0 mi NNW 11.5 mph - N/A   Clear
11:53 AM 66.0 °F - 37.0 °F 34% 29.84 in 10.0 mi North 16.1 mph 26.5 mph N/A   Clear
12:53 PM 70.0 °F - 32.0 °F 25% 29.85 in 10.0 mi North 23.0 mph - N/A   Clear
1:53 PM 73.0 °F - 30.9 °F 21% 29.86 in 10.0 mi North 9.2 mph - N/A   Clear
2:53 PM 73.4 °F - 26.6 °F 18% 29.90 in 10.0 mi NW 5.8 mph 19.6 mph N/A   Clear
3:53 PM 73.0 °F - 24.1 °F 16% 29.86 in 10.0 mi North 5.8 mph - N/A   Clear
4:53 PM 73.0 °F - 23.0 °F 15% 29.87 in 10.0 mi NNW 9.2 mph - N/A   Clear
5:53 PM 73.0 °F - 23.0 °F 15% 29.87 in 10.0 mi NNW 6.9 mph 16.1 mph N/A   Clear
6:53 PM 68.0 °F - 25.0 °F 20% 29.90 in 10.0 mi NNE 3.5 mph - N/A   Clear
7:53 PM 63.0 °F - 25.0 °F 24% 29.93 in 10.0 mi NNE 4.6 mph - N/A   Clear
8:53 PM 55.9 °F - 25.0 °F 30% 29.95 in 10.0 mi NE 6.9 mph - N/A   Clear
9:53 PM 52.0 °F - 28.0 °F 40% 29.95 in 10.0 mi ENE 8.1 mph - N/A   Clear
10:53 PM 53.1 °F - 34.0 °F 48% 29.93 in 10.0 mi East 9.2 mph - N/A   Clear
11:53 PM 51.1 °F - 39.0 °F 63% 29.90 in 10.0 mi ENE 8.1 mph - N/A   Clear